| time (UTC) | temp F | wind direction | speed MPH | gust MPH | rain 1hr in | rain 24hr in | rain mn in | humidity % | barometer mb |
| 20260503231803 | 59 | 243 | 2.0 | 6.0 | 0.00 | 0.00 | 0.00 | 42 | 1011.4 |
| 20260503230903 | 59 | 228 | 2.0 | 6.0 | 0.00 | 0.00 | 0.00 | 41 | 1011.3 |
| 20260503230003 | 60 | 246 | 2.0 | 11.0 | 0.00 | 0.00 | 0.00 | 39 | 1011.2 |
| 20260503225403 | 61 | 237 | 2.0 | 6.0 | 0.00 | 0.00 | 0.00 | 40 | 1011.3 |
| 20260503224503 | 62 | 232 | 2.0 | 9.0 | 0.00 | 0.00 | 0.00 | 39 | 1011.1 |
| 20260503223603 | 61 | 233 | 3.0 | 9.0 | 0.00 | 0.00 | 0.00 | 38 | 1011.1 |
| 20260503222703 | 62 | 247 | 2.0 | 14.0 | 0.00 | 0.00 | 0.00 | 37 | 1011.1 |
| 20260503221803 | 63 | 238 | 2.0 | 8.0 | 0.00 | 0.00 | 0.00 | 38 | 1011.1 |
| 20260503220903 | 64 | 237 | 3.0 | 9.0 | 0.00 | 0.00 | 0.00 | 38 | 1011.0 |
| 20260503220213 | 63 | 251 | 3.0 | 9.0 | 0.00 | 0.00 | 0.00 | 37 | 1011.1 |
| 20260503215403 | 65 | 250 | 3.0 | 7.0 | 0.00 | 0.00 | 0.00 | 38 | 1011.2 |
| 20260503214503 | 66 | 231 | 2.0 | 12.0 | 0.00 | 0.00 | 0.00 | 35 | 1011.1 |
| 20260503213603 | 65 | 351 | 2.0 | 8.0 | 0.00 | 0.00 | 0.00 | 36 | 1011.2 |
| 20260503212917 | 66 | 329 | 3.0 | 8.0 | 0.00 | 0.00 | 0.00 | 36 | 1011.1 |
| 20260503211803 | 66 | 267 | 3.0 | 14.0 | 0.00 | 0.00 | 0.00 | 35 | 1011.1 |
| 20260503211117 | 66 | 328 | 2.0 | 8.0 | 0.00 | 0.00 | 0.00 | 35 | 1010.9 |
| 20260503210003 | 64 | 331 | 3.0 | 13.0 | 0.00 | 0.00 | 0.00 | 37 | 1011.0 |
| 20260503205403 | 64 | 353 | 3.0 | 10.0 | 0.00 | 0.00 | 0.00 | 35 | 1011.0 |
| 20260503204713 | 66 | 342 | 2.0 | 6.0 | 0.00 | 0.00 | 0.00 | 40 | 1010.8 |
| 20260503203603 | 64 | 21 | 3.0 | 10.0 | 0.00 | 0.00 | 0.00 | 37 | 1010.9 |
| 20260503202703 | 63 | 341 | 3.0 | 15.0 | 0.00 | 0.00 | 0.00 | 39 | 1010.9 |
| 20260503202015 | 64 | 354 | 3.0 | 15.0 | 0.00 | 0.00 | 0.00 | 36 | 1010.9 |
| 20260503200903 | 64 | 349 | 3.0 | 9.0 | 0.00 | 0.00 | 0.00 | 37 | 1011.0 |
| 20260503200003 | 64 | 278 | 3.0 | 12.0 | 0.00 | 0.00 | 0.00 | 40 | 1011.0 |
| 20260503195403 | 64 | 268 | 2.0 | 12.0 | 0.00 | 0.00 | 0.00 | 38 | 1011.0 |
| 20260503194713 | 64 | 314 | 2.0 | 12.0 | 0.00 | 0.00 | 0.00 | 45 | 1011.2 |
| 20260503193603 | 62 | 287 | 3.0 | 10.0 | 0.00 | 0.00 | 0.00 | 41 | 1011.4 |
| 20260503192703 | 60 | 4 | 4.0 | 10.0 | 0.00 | 0.00 | 0.00 | 42 | 1011.4 |
| 20260503191803 | 61 | 352 | 3.0 | 10.0 | 0.00 | 0.00 | 0.00 | 41 | 1011.6 |
| 20260503190903 | 62 | 240 | 4.0 | 13.0 | 0.00 | 0.00 | 0.00 | 45 | 1011.5 |
| 20260503190003 | 62 | 292 | 2.0 | 11.0 | 0.00 | 0.00 | 0.00 | 44 | 1011.7 |
| 20260503185403 | 61 | 313 | 3.0 | 11.0 | 0.00 | 0.00 | 0.00 | 46 | 1011.7 |
| 20260503184714 | 60 | 309 | 3.0 | 9.0 | 0.00 | 0.00 | 0.00 | 45 | 1011.9 |
| 20260503183603 | 59 | 318 | 3.0 | 9.0 | 0.00 | 0.00 | 0.00 | 46 | 1012.0 |
| 20260503182914 | 59 | 240 | 4.0 | 10.0 | 0.00 | 0.00 | 0.00 | 45 | 1011.9 |
| 20260503181803 | 59 | 294 | 3.0 | 7.0 | 0.00 | 0.00 | 0.00 | 46 | 1012.0 |
| 20260503181113 | 59 | 268 | 3.0 | 8.0 | 0.00 | 0.00 | 0.00 | 46 | 1012.0 |
| 20260503180003 | 60 | 282 | 4.0 | 9.0 | 0.00 | 0.00 | 0.00 | 46 | 1012.1 |
| 20260503175403 | 59 | 278 | 4.0 | 13.0 | 0.00 | 0.00 | 0.00 | 46 | 1012.3 |
| 20260503174503 | 59 | 4 | 3.0 | 8.0 | 0.00 | 0.00 | 0.00 | 50 | 1012.1 |
| 20260503173603 | 58 | 4 | 2.0 | 6.0 | 0.00 | 0.00 | 0.00 | 48 | 1012.1 |
| 20260503172703 | 58 | 327 | 3.0 | 10.0 | 0.00 | 0.00 | 0.00 | 47 | 1012.1 |
| 20260503171803 | 58 | 318 | 4.0 | 15.0 | 0.00 | 0.00 | 0.00 | 49 | 1012.2 |
| 20260503170903 | 58 | 16 | 3.0 | 7.0 | 0.00 | 0.00 | 0.00 | 48 | 1012.4 |
| 20260503150903 | 56 | 16 | 3.0 | 8.0 | 0.00 | 0.00 | 0.00 | 49 | 1012.7 |
| 20260503130903 | 51 | 14 | 2.0 | 7.0 | 0.00 | 0.00 | 0.00 | 60 | 1012.7 |
| 20260503110215 | 46 | 19 | 1.0 | 6.0 | 0.00 | 0.00 | 0.00 | 64 | 1012.0 |
| 20260503080903 | 48 | 46 | 1.0 | 3.0 | 0.00 | 0.00 | 0.00 | 62 | 1010.7 |
| 20260503080217 | 48 | 26 | 0.0 | 3.0 | 0.00 | 0.00 | 0.00 | 61 | 1010.5 |
| 20260503072703 | 49 | 21 | 0.0 | 3.0 | 0.00 | 0.00 | 0.00 | 60 | 1010.5 |
| 20260503071803 | 49 | 88 | 0.0 | 1.0 | 0.00 | 0.00 | 0.00 | 60 | 1010.5 |
| 20260503070903 | 50 | 3 | 1.0 | 4.0 | 0.00 | 0.00 | 0.00 | 58 | 1010.4 |
| 20260503054503 | 51 | 31 | 1.0 | 7.0 | 0.00 | 0.00 | 0.00 | 55 | 1010.7 |
| 20260503053603 | 52 | 44 | 1.0 | 9.0 | 0.00 | 0.00 | 0.00 | 56 | 1010.8 |
| 20260503052703 | 52 | 55 | 1.0 | 5.0 | 0.00 | 0.00 | 0.00 | 57 | 1010.9 |
| 20260503051803 | 52 | 73 | 1.0 | 9.0 | 0.00 | 0.00 | 0.00 | 58 | 1010.9 |
| 20260503050903 | 52 | 40 | 1.0 | 3.0 | 0.00 | 0.00 | 0.00 | 57 | 1011.0 |
| 20260503050003 | 52 | 33 | 0.0 | 2.0 | 0.00 | 0.00 | 0.00 | 58 | 1011.2 |
| 20260503045403 | 52 | 58 | 0.0 | 1.0 | 0.00 | 0.00 | 0.00 | 58 | 1011.1 |
| 20260503044503 | 52 | 79 | 0.0 | 1.0 | 0.00 | 0.00 | 0.00 | 58 | 1011.1 |
| 20260503043603 | 52 | 31 | 0.0 | 2.0 | 0.00 | 0.00 | 0.00 | 56 | 1011.2 |
| 20260503042703 | 53 | 73 | 0.0 | 3.0 | 0.00 | 0.00 | 0.00 | 56 | 1011.2 |
| 20260503041803 | 53 | 27 | 1.0 | 3.0 | 0.00 | 0.00 | 0.00 | 55 | 1011.1 |
| 20260503040903 | 53 | 30 | 1.0 | 5.0 | 0.00 | 0.00 | 0.00 | 54 | 1011.3 |
| 20260503040003 | 53 | 8 | 0.0 | 3.0 | 0.00 | 0.00 | 0.00 | 55 | 1011.4 |
| 20260503035403 | 53 | 81 | 0.0 | 6.0 | 0.00 | 0.00 | 0.00 | 55 | 1011.3 |
| 20260503034503 | 53 | 65 | 1.0 | 6.0 | 0.00 | 0.00 | 0.00 | 54 | 1011.2 |
| 20260503033816 | 54 | 57 | 1.0 | 4.0 | 0.00 | 0.00 | 0.00 | 56 | 1011.3 |
| 20260503032703 | 54 | 40 | 1.0 | 3.0 | 0.00 | 0.00 | 0.00 | 55 | 1011.1 |
| 20260503031803 | 54 | 68 | 1.0 | 6.0 | 0.00 | 0.00 | 0.00 | 55 | 1011.1 |
| 20260503031113 | 54 | 71 | 1.0 | 6.0 | 0.00 | 0.00 | 0.00 | 58 | 1011.3 |
| 20260503030003 | 54 | 73 | 0.0 | 2.0 | 0.00 | 0.00 | 0.00 | 58 | 1011.1 |
| 20260503025403 | 54 | 44 | 0.0 | 2.0 | 0.00 | 0.00 | 0.00 | 58 | 1011.2 |
| 20260503024503 | 53 | 99 | 0.0 | 4.0 | 0.00 | 0.00 | 0.00 | 60 | 1011.2 |
| 20260503023603 | 54 | 87 | 0.0 | 4.0 | 0.00 | 0.00 | 0.00 | 58 | 1011.3 |
| 20260503022703 | 54 | 84 | 0.0 | 1.0 | 0.00 | 0.00 | 0.00 | 59 | 1011.2 |
| 20260503021803 | 54 | 78 | 0.0 | 3.0 | 0.00 | 0.00 | 0.00 | 57 | 1011.2 |
| 20260503020903 | 54 | 82 | 0.0 | 3.0 | 0.00 | 0.00 | 0.00 | 56 | 1011.0 |
| 20260503020003 | 54 | 52 | 0.0 | 3.0 | 0.00 | 0.00 | 0.00 | 54 | 1011.3 |
| 20260503015403 | 54 | 72 | 0.0 | 3.0 | 0.00 | 0.00 | 0.00 | 56 | 1011.2 |
| 20260503014503 | 54 | 60 | 0.0 | 3.0 | 0.00 | 0.00 | 0.00 | 56 | 1011.2 |
| 20260503013603 | 54 | 38 | 0.0 | 4.0 | 0.00 | 0.00 | 0.00 | 55 | 1011.4 |
| 20260503012703 | 54 | 40 | 1.0 | 7.0 | 0.00 | 0.00 | 0.00 | 54 | 1011.3 |
| 20260503011803 | 54 | 31 | 0.0 | 2.0 | 0.00 | 0.00 | 0.00 | 60 | 1011.2 |
| 20260503011114 | 54 | 83 | 0.0 | 1.0 | 0.00 | 0.00 | 0.00 | 60 | 1011.1 |
| 20260503010003 | 53 | 102 | 0.0 | 2.0 | 0.00 | 0.00 | 0.00 | 62 | 1011.0 |
| 20260503005613 | 53 | 123 | 0.0 | 1.0 | 0.00 | 0.00 | 0.00 | 64 | 1011.0 |
| 20260503004503 | 53 | 0 | 0.0 | 0.0 | 0.00 | 0.00 | 0.00 | 66 | 1010.7 |
| 20260503003603 | 54 | 0 | 0.0 | 0.0 | 0.00 | 0.00 | 0.00 | 64 | 1010.6 |
| 20260503002703 | 54 | 0 | 0.0 | 0.0 | 0.00 | 0.00 | 0.00 | 62 | 1010.5 |
| 20260503001803 | 55 | 0 | 0.0 | 0.0 | 0.00 | 0.00 | 0.00 | 60 | 1010.5 |
| 20260503000903 | 56 | 0 | 0.0 | 0.0 | 0.00 | 0.00 | 0.00 | 58 | 1010.6 |
| 20260503000003 | 56 | 0 | 0.0 | 0.0 | 0.00 | 0.00 | 0.00 | 56 | 1010.5 |
| 20260502235403 | 57 | 0 | 0.0 | 0.0 | 0.00 | 0.00 | 0.00 | 56 | 1010.4 |
| 20260502234503 | 57 | 0 | 0.0 | 0.0 | 0.00 | 0.00 | 0.00 | 53 | 1010.6 |
| 20260502233603 | 58 | 0 | 0.0 | 0.0 | 0.00 | 0.00 | 0.00 | 52 | 1010.5 |
| 20260502232703 | 58 | 186 | 0.0 | 1.0 | 0.00 | 0.00 | 0.00 | 52 | 1010.5 |